Location: Newark
(55.2875°N, 3.1864°W)
Time: 00:16:45
(UTC+00:00)

ISS - Pass Details

Date: 31 January 2020
Orbit: 415 x 423 km, 51.6° (Epoch: 25 February)

Event Time Altitude Azimuth Distance (km) Brightness Sun altitude
Rises 19:49:39 0° 274° (W) 2,382 1.4 -26.0°
Reaches altitude 10° 19:51:57 10° 261° (W) 1,513 0.0 -26.4°
Enters shadow 19:53:33 21° 239° (WSW) 1,025 -1.3 -26.6°
